Find Starlink 32040

NORAD ID: 60109 Int'l Des: 2024-117 Owner: SPXS Country: US Constellation: starlink operational
LEOCIRCULAR

当前视图

正在加载3D地球...

About Starlink 32040

Starlink 32040 (NORAD 60109) is a starlink constellation satellite (v2 mini) launched Jun 23, 2024 by SPXS of US. It operates in LEO, CIRCULAR orbit with a mass of 730.00 kg.

关于 Starlink 32040

正在加载描述...

即将过境

Passes for default location (London). Set your location on the main map for personalized predictions.

高度历史

Loading altitude history...

两行轨道根数

1 60109U 24117U 26171.44387132 -.00001966 00000-0 -54265-4 0 9990
2 60109 53.1602 279.4860 0001178 80.1467 279.9667 15.30194195112620
Epoch: Jun 20, 2026 • Age: 28 hours

当前状态

高度 493.2 km
速度 7.62 km/s
星下点 -49.78°S, 30.11°E
发射日期 Jun 23, 2024
运行时间 1.9 years
类型 internet

技术详情

分类 Payload
质量 730.00 kg
干质量 700.00 kg
总质量 730.00 kg
长度 0.30 m
直径 4.10 m
跨度 29.00 m
形状 Box + pan
制造商 SPXS
平台类型 Starlink V2M
阶段状态 In Orbit
所有者/国家 SPXS/US

Most Searched